OH6DL-15 Weather Reports


Display with metric or nautical units.
time (UTC)temp
F
wind
direction
speed
MPH
gust
MPH
rain 1hr
in
rain 24hr
in
rain mn
in
humidity
%
barometer
mb
20260506050903 39 315 4.0 6.0 0.00 0.01 0.00 74 1007.6
20260506044503 38 314 3.0 6.0 0.00 0.01 0.00 76 1007.4
20260506043603 38 311 4.0 6.0 0.00 0.01 0.00 79 1007.4
20260506042703 37 323 2.0 6.0 0.00 0.01 0.00 79 1007.2
20260506042016 37 313 3.0 8.0 0.00 0.01 0.00 79 1007.4
20260506040903 37 305 4.0 9.0 0.00 0.01 0.00 80 1007.1
20260506040003 37 317 4.0 7.0 0.00 0.01 0.00 81 1006.9
20260506035403 36 318 4.0 6.0 0.00 0.01 0.00 81 1007.0
20260506034503 36 318 3.0 4.0 0.00 0.01 0.00 82 1006.7
20260506033603 36 315 3.0 7.0 0.00 0.01 0.00 83 1006.7
20260506032703 36 318 3.0 7.0 0.00 0.01 0.00 84 1006.7
20260506031803 36 310 3.0 6.0 0.00 0.01 0.00 86 1006.7
20260506030903 35 309 2.0 4.0 0.00 0.01 0.00 86 1006.3
20260506030003 35 310 4.0 7.0 0.00 0.01 0.00 87 1006.2
20260506025403 35 309 3.0 7.0 0.00 0.01 0.00 87 1006.5
20260506024503 35 310 3.0 7.0 0.00 0.01 0.00 88 1006.4
20260506023812 35 310 2.0 6.0 0.00 0.01 0.00 87 1006.2
20260506022703 35 323 2.0 6.0 0.00 0.01 0.00 87 1006.1
20260506021803 34 312 2.0 6.0 0.00 0.01 0.00 88 1006.0
20260506020903 34 324 2.0 7.0 0.00 0.01 0.00 88 1006.0
20260506020003 34 330 2.0 7.0 0.00 0.01 0.00 87 1006.0
20260506015403 34 328 2.0 7.0 0.00 0.01 0.00 87 1005.9
20260506014503 34 309 4.0 7.0 0.00 0.01 0.00 86 1005.9
20260506013603 34 309 3.0 4.0 0.00 0.01 0.00 86 1005.8
20260506012703 34 311 2.0 7.0 0.00 0.01 0.00 87 1005.5
20260506012013 34 318 2.0 9.0 0.00 0.01 0.00 86 1005.5
20260506010903 34 321 5.0 8.0 0.00 0.01 0.00 84 1005.4
20260506010003 34 304 4.0 7.0 0.00 0.01 0.00 84 1005.4
20260506005403 35 306 4.0 8.0 0.00 0.01 0.00 84 1005.4
20260506004504 35 303 5.0 8.0 0.00 0.01 0.00 83 1005.2
20260506003603 35 298 4.0 7.0 0.00 0.01 0.00 83 1005.2
20260506002703 35 305 3.0 7.0 0.00 0.01 0.00 83 1005.4
20260506001803 35 302 4.0 6.0 0.00 0.01 0.00 83 1004.9
20260506000903 36 315 2.0 7.0 0.00 0.01 0.00 83 1005.2
20260506000213 36 315 2.0 7.0 0.00 0.01 0.00 81 1004.9
20260505235403 36 318 3.0 6.0 0.00 0.01 0.00 81 1005.1
20260505234503 36 299 3.0 4.0 0.00 0.01 0.00 81 1004.9
20260505233603 36 299 2.0 6.0 0.00 0.01 0.00 81 1004.9
20260505232917 36 303 3.0 6.0 0.00 0.01 0.00 79 1004.9
20260505232014 36 308 2.0 6.0 0.00 0.01 0.00 79 1004.8
20260505230903 37 301 2.0 4.0 0.00 0.01 0.00 80 1004.6
20260505230003 36 308 2.0 8.0 0.00 0.01 0.00 79 1005.0
20260505225403 36 301 3.0 8.0 0.00 0.01 0.00 79 1004.7
20260505224503 37 292 4.0 8.0 0.00 0.01 0.00 77 1004.9
20260505223603 37 303 2.0 7.0 0.00 0.01 0.00 76 1004.7
20260505222703 37 296 4.0 8.0 0.00 0.01 0.00 74 1004.7
20260505221803 38 298 5.0 8.0 0.00 0.01 0.00 73 1004.8
20260505220903 38 305 3.0 7.0 0.00 0.01 0.00 72 1005.0
20260505220003 38 300 4.0 8.0 0.00 0.01 0.00 71 1004.6
20260505215403 38 302 5.0 7.0 0.00 0.01 0.00 71 1004.8
20260505214503 38 297 4.0 8.0 0.00 0.01 0.00 72 1004.5
20260505213603 39 301 5.0 9.0 0.00 0.01 0.00 70 1004.8
20260505212913 39 303 4.0 11.0 0.00 0.01 0.00 70 1004.6
20260505211803 39 302 4.0 11.0 0.00 0.01 0.00 69 1004.6
20260505211112 39 304 4.0 11.0 0.00 0.01 0.00 69 1004.6
20260505210003 40 300 4.0 9.0 0.00 0.01 0.00 70 1004.4
20260505205403 40 306 2.0 9.0 0.00 0.01 0.01 69 1004.5
20260505204503 40 313 4.0 9.0 0.00 0.01 0.01 65 1004.3
20260505203603 41 308 4.0 8.0 0.00 0.01 0.01 67 1004.5
20260505202703 41 308 4.0 9.0 0.00 0.01 0.01 66 1004.2
20260505201803 41 303 4.0 7.0 0.00 0.01 0.01 65 1004.1
20260505201113 42 310 4.0 7.0 0.00 0.01 0.01 65 1004.0
20260505200216 42 308 3.0 7.0 0.00 0.01 0.01 65 1003.9
20260505195403 42 316 4.0 9.0 0.00 0.01 0.01 63 1004.0
20260505194503 43 309 4.0 7.0 0.00 0.01 0.01 65 1004.1
20260505193603 43 312 4.0 11.0 0.00 0.01 0.01 61 1003.7
20260505192703 43 309 4.0 8.0 0.00 0.01 0.01 62 1003.7
20260505191803 44 317 4.0 7.0 0.00 0.01 0.01 58 1003.6
20260505190903 44 312 4.0 8.0 0.00 0.01 0.01 59 1003.5
20260505190003 44 311 5.0 8.0 0.00 0.01 0.01 58 1003.5
20260505185403 44 314 4.0 7.0 0.00 0.01 0.01 57 1003.4
20260505184503 45 316 4.0 8.0 0.00 0.01 0.01 56 1003.3
20260505183812 45 312 4.0 8.0 0.00 0.01 0.01 53 1003.3
20260505182703 45 311 4.0 9.0 0.00 0.01 0.01 55 1003.1
20260505181803 45 315 3.0 4.0 0.00 0.01 0.01 50 1002.9
20260505180903 45 311 2.0 4.0 0.00 0.01 0.01 55 1002.7
20260505180003 46 317 2.0 6.0 0.00 0.01 0.01 53 1002.9
20260505175403 46 315 3.0 11.0 0.00 0.01 0.01 51 1002.6
20260505174503 46 312 4.0 7.0 0.00 0.01 0.01 50 1002.9
20260505173603 46 317 3.0 7.0 0.00 0.01 0.01 51 1002.6
20260505172703 46 308 3.0 4.0 0.00 0.01 0.01 53 1002.8
20260505172013 46 311 3.0 4.0 0.00 0.01 0.01 53 1002.6
20260505170903 46 311 4.0 6.0 0.00 0.01 0.01 51 1002.8
20260505170003 48 314 4.0 6.0 0.00 0.01 0.01 44 1002.5
20260505165403 48 320 3.0 9.0 0.00 0.01 0.01 44 1002.4
20260505164503 48 327 4.0 15.0 0.00 0.01 0.01 47 1002.5
20260505163814 47 311 4.0 15.0 0.00 0.01 0.01 47 1002.3
20260505162703 47 312 4.0 7.0 0.00 0.01 0.01 42 1002.4
20260505161803 47 303 3.0 9.0 0.00 0.01 0.01 44 1002.4
20260505160903 47 310 4.0 7.0 0.00 0.01 0.01 45 1002.2
20260505152703 48 313 5.0 8.0 0.00 0.01 0.01 43 1002.1
20260505152014 48 312 4.0 9.0 0.00 0.01 0.01 45 1002.0
20260505151116 48 314 4.0 11.0 0.00 0.01 0.01 47 1001.8
20260505124714 46 306 4.0 14.0 0.00 0.01 0.01 53 1000.8
20260505123603 47 307 8.0 16.0 0.00 0.01 0.01 48 1000.7
20260505122703 47 296 12.0 16.0 0.00 0.01 0.01 49 1000.8
20260505122016 47 311 4.0 8.0 0.00 0.01 0.01 53 1000.6
20260505120903 46 311 4.0 11.0 0.00 0.01 0.01 56 1000.5
20260505120004 46 312 5.0 9.0 0.00 0.01 0.01 54 1000.7
20260505115403 46 315 4.0 9.0 0.00 0.01 0.01 54 1000.6
20260505114503 46 305 4.0 14.0 0.00 0.01 0.01 58 1000.3
20260505113603 46 307 5.0 16.0 0.00 0.01 0.01 49 1000.3
20260505112703 46 310 9.0 16.0 0.00 0.01 0.01 49 1000.1
20260505111803 46 302 4.0 13.0 0.00 0.01 0.01 55 1000.1
20260505110903 46 313 7.0 9.0 0.00 0.01 0.01 53 1000.0
20260505101803 44 313 6.0 11.0 0.00 0.01 0.01 58 999.7
20260505100903 45 306 5.0 14.0 0.00 0.01 0.01 60 999.7
20260505100003 43 305 6.0 14.0 0.00 0.01 0.01 62 999.4
20260505095403 44 296 5.0 15.0 0.00 0.01 0.01 61 999.5
20260505094503 44 311 5.0 11.0 0.00 0.01 0.01 59 999.5
20260505093603 44 303 5.0 13.0 0.00 0.01 0.01 65 999.3
20260505092703 43 315 4.0 13.0 0.00 0.01 0.01 69 999.3
20260505091803 42 311 5.0 13.0 0.00 0.01 0.01 67 999.4
20260505090903 43 305 6.0 13.0 0.00 0.01 0.01 67 999.4
20260505090212 43 311 4.0 13.0 0.00 0.01 0.01 65 999.2
20260505085403 42 305 6.0 13.0 0.00 0.01 0.01 68 999.3
20260505084503 42 300 5.0 11.0 0.00 0.01 0.01 74 999.5
20260505083814 42 313 8.0 11.0 0.00 0.01 0.01 75 999.1
20260505082703 41 305 4.0 11.0 0.00 0.01 0.01 79 999.1
20260505082013 41 301 9.0 11.0 0.00 0.01 0.01 79 998.9
20260505080903 41 308 4.0 8.0 0.00 0.01 0.01 79 998.8
20260505080003 41 310 3.0 7.0 0.00 0.01 0.01 83 998.9
20260505075403 40 311 3.0 8.0 0.00 0.01 0.01 83 998.9
20260505074717 40 312 4.0 11.0 0.00 0.01 0.01 85 998.8
20260505073814 39 300 6.0 11.0 0.00 0.01 0.01 84 998.9
20260505072917 39 309 4.0 8.0 0.00 0.01 0.01 89 998.8
20260505071803 39 299 4.0 9.0 0.00 0.01 0.01 88 998.7
20260505070903 39 305 5.0 9.0 0.00 0.01 0.01 89 998.5
20260505070003 38 310 4.0 9.0 0.00 0.01 0.01 90 998.5
20260505065403 38 312 2.0 7.0 0.00 0.01 0.01 91 998.4
20260505064503 38 308 3.0 8.0 0.00 0.01 0.01 92 998.2
20260505063603 38 304 2.0 7.0 0.01 0.01 0.01 92 998.3
20260505062703 37 299 4.0 7.0 0.01 0.01 0.01 94 998.2
20260505061803 37 292 2.0 8.0 0.01 0.01 0.01 94 998.1
20260505060903 37 294 3.0 4.0 0.01 0.01 0.01 94 998.2
20260505060004 37 282 2.0 4.0 0.01 0.01 0.01 94 998.0